Location: Oak Glen
(34.0495°N, 116.9470°E)
Time: 13:50:24
(UTC-08:00)

Envisat - Pass Details

Date: 11 October 2017
Orbit: 764 x 766 km, 98.2° (Epoch: 12 December)

Event Time Altitude Azimuth Distance (km) Brightness Sun altitude
Exits shadow 04:09:01 19° 43° (NE) 1,763 4.5 -18.5°
Drops below altitude 10° 04:11:17 10° 19° (NNE) 2,306 5.3 -19.0°
Sets 04:14:03 0° 5° (N) 3,236 6.2 -19.6°
